Track GALAXY 25 (TELSTAR 5) now! GALAXY 25 (TELSTAR 5) is classified as:
1 24812U 97026A 22186.16912986 .00000006 00000-0 00000-0 0 9998 2 24812 3.7348 83.5040 0006433 1.9173 324.7005 1.00271816 91907